Hourly Weather Roundup
Issued by NWS Central Illinois

Home | Current Version | Previous Version | Text Only | Print | Product List | Glossary On
Versions: 1 2 3 4 5 6 7 8 9 10 11 12 13 14 15 16 17 18 19 20 21 22 23 24 25 26 27 28 29 30 31 32 33 34 35 36 37 38 39 40 41 42 43 44 45 46 47 48 49 50
966
NZUS43 KILX 282010
HWRILX

Area Weather Roundup
National Weather Service Lincoln IL
300 PM CDT SUN MAY 28 2017

NOTE:  "FAIR" indicates few or no clouds below 12,000 feet, with
       no sigificant weather and/or obstructions to visibility.


CITY           SKY/WX    TMP DP  RH WIND       PRES   REMARKS
Bloomington    MOSUNNY   75  57  53 NW16      29.80R
Champaign      PTSUNNY   77  59  53 NW14      29.76R
Danville       PTSUNNY   77  65  65 NW12      29.71F
Decatur        PTSUNNY   78  59  51 W13G22    29.78R
Effingham      CLOUDY    76  68  76 W10G16    29.82S
Flora          CLOUDY    73  65  76 W12       29.84R
Galesburg      MOSUNNY   77  55  46 W10G16    29.79F
Jacksonville   MOSUNNY   77  54  45 NW14G21   29.83R
Lacon          SUNNY     75  55  48 NW8       29.77F
Lawrenceville  PTSUNNY   79  64  60 W16       29.80R HX  81
Litchfield     MOSUNNY   76  62  60 W13G20    29.83R
$$


CITY           SKY/WX    TMP DP  RH WIND       PRES   REMARKS
Lincoln        PTSUNNY   78  57  48 NW8       29.79S
Macomb         MOSUNNY   78  50  36 NW18      29.83S
Mattoon        LGT RAIN  75  63  66 W12G20    29.77S
Mt Carmel AP   CLOUDY    78  63  60 W15       29.81R
Olney-Noble AP PTSUNNY   74  69  86 W10       29.83R
Paris AP       CLOUDY    72  69  90 SW8       29.76S THUNDER
Peoria         MOSUNNY   77  56  48 NW9       29.79F
Pontiac        MOSUNNY   75  58  55 W17G23    29.77F
Rantoul        CLOUDY    79  62  56 NW17G23   29.75R HX  80
Robinson       PTSUNNY   78  65  63 W13       29.79S HX  80
Springfield    MOSUNNY   79  56  45 NW17      29.81R HX  80
Taylorville    CLOUDY    77  59  55 NW15      29.81R
$$

...REGIONAL REPORTS...


CITY           SKY/WX    TMP DP  RH WIND       PRES   REMARKS
Chicago O`Hare PTSUNNY   75  56  51 NW12      29.72F
Kankakee       MOSUNNY   79  59  50 W15G22    29.73F HX  80
Moline         MOSUNNY   79  56  45 W16       29.77F HX  80
Mount Sterling MOSUNNY   76  53  44 W14       29.83S
Mount Vernon     N/A     71  64  78 W7        29.85R
Pittsfield     MOSUNNY   78  55  45 W13       29.85S
Quincy         MOSUNNY   78  53  41 W13       29.84S
Rockford       MOSUNNY   75  55  49 W13       29.77S
$$


CITY           SKY/WX    TMP DP  RH WIND       PRES   REMARKS
Burlington     MOSUNNY   78  56  46 NW13G20   29.80F
Cedar Rapids   SUNNY     76  50  40 W20G25    29.79F
Des Moines     MOSUNNY   79  47  32 NW14      29.83F
Kirksville     PTSUNNY   80  51  36 NW18G26   29.87F HX  80
Ottumwa        SUNNY     77  49  37 NW15      29.83F
St Louis       PTSUNNY   80  61  52 NW13G24   29.85R HX  81
$$


CITY           SKY/WX    TMP DP  RH WIND       PRES   REMARKS
Terre Haute    PTSUNNY   77  63  61 W14       29.76F
Evansville     CLOUDY    76  64  66 SW13      29.83R
Indianapolis   PTSUNNY   77  63  61 SW13      29.74F
Lafayette      CLOUDY    75  67  76 SW7       29.71F
Madison        PTSUNNY   72  51  47 SW7       29.70F
Milwaukee      MOSUNNY   73  55  53 W8        29.72S
$$






USA.gov is the U.S. government's official web portal to all federal, state and local government web resources and services.